Wetbulb
43.95 43.84 43.79 44.12 44.20 45.10 45.07 45.54 46.14 46.92 47.76 47.76 47.80 47.56 48.29 48.77 49.78 51.39 49.08 47.18 46.34 37.02 38.85 38.83 39.58 36.09 35.67 35.57 33.57 34.49 34.42 33.24 32.06 29.26 27.83 27.26 25.18 27.70 25.40 26.19 26.74 26.09 23.42 23.40 23.81 22.04 21.28 31.84 30.96 28.95 31.38 29.80 32.42 32.42
43.72 43.87 44.07 43.74 44.46 44.35 44.92 45.72 46.83 47.06 47.09 47.32 47.56 47.74 47.85 47.76 48.66 49.06 47.52 47.81 47.75 41.31 37.36 41.66 41.51 41.97 40.97 40.58 37.63 34.96 35.59 34.12 35.79 31.09 29.30 28.68 27.94 26.13 26.90 25.48 28.56 27.08 30.24 28.00 28.68 27.57 31.95 31.44 32.17 32.82 33.42 33.21 32.92 33.36
43.25 43.40 43.91 43.79 44.18 44.65 45.22 46.44 46.15 46.45 46.61 46.74 46.83 47.51 47.88 48.12 48.18 48.57 48.81 46.98 45.84 43.71 41.54 38.90 39.73 42.32 43.11 42.91 42.93 36.50 36.15 38.42 36.21 37.54 33.59 32.18 29.78 30.34 25.83 26.03 27.44 30.50 33.01 30.35 30.55 31.13 32.51 32.60 32.97 33.49 33.60 33.28 33.88 34.27
42.83 43.03 43.73 44.46 44.81 45.34 45.67 46.14 46.21 46.31 46.14 46.80 46.91 47.26 47.00 47.41 47.87 48.18 45.13 48.05 47.11 42.78 38.17 36.41 40.59 39.81 40.46 42.77 43.03 42.18 40.27 40.22 39.49 38.15 34.73 32.99 31.29 32.97 28.79 29.88 29.02 31.69 32.68 31.45 30.19 31.07 32.94 33.38 34.10 34.82 34.67 34.52 34.17 34.01
42.87 42.98 43.50 44.07 44.29 45.14 45.53 46.01 45.95 45.33 45.80 45.32 45.69 45.85 46.17 46.23 47.20 46.80 46.27 49.37 49.99 43.55 35.81 34.29 37.56 38.22 40.37 41.92 42.27 41.22 40.67 39.17 37.81 35.81 33.88 32.73 34.25 34.05 31.52 30.54 28.87 33.06 33.04 32.26 31.72 33.91 32.97 32.31 34.79 35.29 33.53 34.13 34.20 33.58
42.96 43.06 43.49 43.38 44.11 44.87 45.05 45.64 45.30 45.04 44.49 44.59 45.06 45.09 45.62 45.06 45.82 44.02 39.27 48.84 50.26 48.95 39.09 32.68 36.28 34.17 37.12 40.15 39.79 39.43 40.32 39.85 38.60 36.90 37.23 37.37 38.12 36.76 32.15 30.16 32.31 34.93 35.43 36.53 34.09 34.01 35.14 35.25 34.48 34.25 34.35 33.96 34.29 33.64
42.50 43.14 43.66 43.68 43.86 44.56 45.15 44.65 44.43 43.38 44.07 44.99 46.30 47.85 47.79 45.48 43.26 40.02 40.33 45.78 50.18 48.75 39.04 32.52 33.03 36.24 39.19 37.71 37.41 37.91 39.20 38.89 38.74 37.90 36.66 36.48 36.16 36.62 31.85 27.65 31.94 33.96 34.29 34.77 35.04 34.74 32.74 33.62 32.77 34.21 34.39 34.77 35.99 33.24
42.13 42.69 42.95 43.18 43.56 44.32 44.72 44.41 42.64 42.56 46.82 48.37 49.67 50.00 47.17 45.64 45.20 42.19 46.17 49.39 49.64 44.99 41.13 32.74 29.87 32.93 36.87 34.84 33.25 38.45 36.90 37.78 37.63 36.08 36.40 34.61 34.75 34.66 30.19 32.23 32.09 32.53 33.30 32.48 32.14 33.75 33.46 32.90 33.02 33.03 32.81 32.45 30.81 29.90
41.63 42.13 42.50 42.94 43.34 43.97 43.83 43.84 41.48 44.24 47.80 49.65 48.95 46.53 43.59 41.82 39.05 41.82 47.93 49.18 46.11 42.45 33.27 31.07 29.23 27.93 35.90 33.25 33.58 33.96 35.97 31.55 33.23 31.83 32.75 34.77 31.45 29.14 31.75 30.20 30.62 30.91 30.60 30.04 30.21 31.31 32.51 31.86 30.91 30.47 30.29 29.59 27.89 26.72
41.66 41.65 42.51 42.63 42.98 43.73 43.92 42.73 41.19 44.72 45.94 46.16 42.95 37.09 31.33 36.07 47.21 47.16 41.90 35.24 33.94 32.90 35.62 29.99 29.78 27.76 32.93 31.37 29.86 30.12 31.91 29.37 26.62 29.19 33.17 30.19 28.82 28.64 28.36 29.06 29.03 29.00 29.75 29.94 27.89 28.41 29.63 28.52 28.31 28.50 27.67 26.65 25.95 25.35
41.18 41.34 42.27 42.36 42.66 43.22 43.58 42.93 41.16 39.82 39.99 35.05 30.58 28.48 33.04 43.88 38.18 33.65 29.41 30.89 29.48 27.72 30.83 29.49 28.81 28.31 33.48 28.67 27.74 31.06 27.12 27.45 23.07 25.19 26.06 24.24 22.56 24.44 27.24 28.63 29.58 30.08 30.59 30.24 29.43 28.43 27.71 27.19 26.14 26.02 25.79 25.20 24.87 23.90
40.99 41.24 41.29 42.33 42.36 42.73 43.31 42.93 41.98 34.16 31.72 33.77 32.37 33.24 32.54 31.17 28.53 25.60 24.24 26.48 27.51 24.36 27.90 26.55 28.96 30.89 30.03 32.82 28.09 28.21 23.74 24.51 19.95 26.14 22.33 19.48 22.11 24.79 26.58 27.75 28.10 28.68 28.59 28.06 28.42 27.52 27.25 27.57 26.27 25.13 23.96 23.26 22.68 22.55
40.80 40.94 40.57 41.39 41.86 42.46 42.42 42.27 42.15 39.37 35.81 34.03 30.92 27.54 26.74 24.95 20.56 20.81 17.95 19.89 21.98 24.98 26.47 28.65 26.22 28.78 30.03 30.19 26.49 25.26 21.21 20.53 24.96 19.66 19.12 18.99 23.95 24.37 25.36 27.21 26.87 27.21 26.84 26.32 26.20 26.28 25.99 24.15 24.58 23.99 23.19 23.04 22.16 21.54
40.68 40.79 40.24 40.84 40.62 41.21 41.08 41.24 40.91 37.14 32.22 26.76 23.70 18.64 19.99 17.45 19.62 20.21 18.99 18.16 24.76 27.63 27.49 27.04 26.65 27.00 28.33 25.16 25.51 19.69 22.16 22.16 15.60 12.91 14.42 19.63 23.48 23.15 25.06 26.45 24.97 23.41 24.20 24.18 24.45 24.65 24.08 24.91 23.39 23.61 23.01 21.90 21.21 21.17
40.32 40.64 39.73 39.46 40.42 40.49 39.82 39.85 39.50 33.63 29.34 23.38 22.93 16.58 18.89 22.97 22.79 24.03 25.80 27.16 28.46 29.65 28.25 25.97 25.27 25.72 23.91 21.40 23.34 20.80 17.44 15.67 16.66 15.56 19.90 22.26 23.67 23.03 23.50 24.72 23.62 23.09 22.69 22.09 21.62 22.24 22.88 22.51 21.32 21.36 22.16 21.82 21.49 21.46
40.15 38.33 36.26 40.28 39.91 39.61 38.81 36.63 32.59 31.77 27.34 23.00 21.58 20.41 23.30 23.33 23.13 25.38 25.76 24.56 27.85 27.54 27.83 26.73 22.38 20.15 18.97 20.41 18.20 16.79 16.26 14.62 18.18 20.95 23.47 23.31 21.91 22.35 22.96 24.07 23.86 23.19 22.30 22.25 22.48 22.94 22.85 21.65 20.93 20.92 21.09 21.02 21.03 21.65
37.79 31.57 39.09 39.51 39.09 38.06 36.17 29.16 28.19 23.53 22.17 21.19 19.86 23.87 23.00 22.89 22.78 23.49 26.11 25.44 27.71 25.71 20.09 21.68 17.22 16.66 20.04 15.98 15.39 17.65 17.30 20.45 22.43 22.60 23.83 23.81 23.18 22.92 23.00 23.86 24.23 23.99 22.88 21.68 21.22 21.63 21.60 22.65 20.28 19.59 19.30 21.04 21.13 21.96
30.15 34.17 38.91 38.86 36.32 30.88 26.79 24.85 21.57 20.82 18.71 20.61 19.38 20.96 23.59 24.03 24.44 24.67 25.55 25.49 26.22 23.61 22.22 18.81 20.77 16.15 15.21 13.70 15.16 19.81 20.15 20.66 23.06 24.31 24.44 23.55 22.85 22.84 24.35 23.75 24.12 23.62 22.49 22.12 21.22 20.28 19.74 19.06 19.40 20.15 20.59 21.33 19.69 19.64
33.95 36.23 38.39 37.32 32.56 23.14 17.15 21.39 21.37 16.84 19.05 21.76 22.97 23.20 24.19 24.30 26.55 26.51 25.62 25.28 24.74 24.59 21.32 18.53 15.70 13.79 16.13 18.08 20.27 19.98 19.78 21.16 21.05 21.71 21.59 21.20 22.21 22.94 23.48 22.87 22.29 21.52 20.32 20.11 19.36 18.93 19.58 20.30 20.35 20.97 21.27 21.23 20.39 21.86
38.54 38.02 37.30 34.55 30.17 14.37 12.98 17.26 22.55 16.88 16.19 19.66 21.53 20.77 22.22 22.51 24.70 25.97 26.08 25.45 23.98 21.19 17.53 15.56 16.44 18.18 18.60 20.46 21.72 22.29 22.63 22.13 22.22 20.80 21.50 21.84 21.30 19.91 22.07 21.18 21.60 21.50 19.58 18.45 18.81 22.18 19.44 19.72 20.68 20.70 20.41 21.46 20.70 19.47
34.01 33.52 32.51 27.28 16.65 18.44 20.01 14.21 17.91 19.14 19.26 15.70 18.46 18.74 16.89 19.67 19.87 19.43 18.59 22.74 20.49 15.61 16.79 19.28 20.10 21.35 23.36 23.14 24.30 23.97 22.17 22.33 21.73 21.80 21.36 20.63 21.79 21.93 19.07 17.70 16.47 18.95 17.06 16.17 15.72 16.93 19.68 18.35 19.16 19.77 16.33 20.33 19.39 19.95
28.00 33.25 18.41 19.25 9.58 10.01 12.55 16.43 17.45 18.46 13.64 14.40 14.01 18.42 12.93 10.92 12.92 13.64 16.14 17.94 16.00 19.27 20.41 21.49 22.84 22.54 22.82 21.59 21.97 22.55 23.01 22.52 21.90 23.06 24.08 23.96 18.37 16.61 16.76 17.95 15.53 11.27 12.57 14.08 15.42 15.62 17.39 18.34 18.91 19.96 17.97 18.27 19.70 17.58
30.63 24.94 12.59 9.27 9.23 7.34 12.83 9.61 9.93 10.53 7.20 9.64 10.60 6.39 6.70 6.91 11.26 14.16 11.10 12.87 18.12 19.25 20.07 22.08 22.65 22.10 21.36 20.23 19.73 18.85 19.16 19.37 17.73 17.55 17.82 17.02 17.08 18.26 17.34 17.48 16.88 11.40 12.44 15.16 16.48 16.11 15.34 20.03 18.95 18.47 18.02 16.41 15.76 15.31
26.13 14.28 9.96 3.14 3.31 3.18 1.69 3.51 7.30 11.80 4.45 2.75 8.41 6.37 7.99 5.15 6.40 8.09 7.64 11.48 15.63 18.08 17.36 17.71 18.03 17.69 18.75 17.81 16.02 15.41 15.51 16.42 15.60 15.41 15.71 14.84 13.40 14.83 15.79 16.18 17.03 16.27 16.73 16.79 15.53 15.28 15.66 15.79 18.76 15.73 15.04 13.65 13.08 13.26
13.07 12.01 7.18 6.52 -0.28 3.54 -0.54 -1.19 -2.27 2.27 -1.77 -4.89 4.97 -3.20 -1.40 -0.73 1.01 6.88 4.76 9.55 12.48 12.67 14.20 15.26 16.90 18.05 18.14 18.24 18.33 17.11 15.40 13.61 11.63 9.72 11.40 10.69 11.32 12.34 12.48 13.44 15.03 15.48 16.16 10.83 12.67 14.13 14.21 13.41 13.56 13.20 12.93 12.45 11.29 12.94
6.19 7.36 5.01 7.40 5.00 4.35 5.61 0.74 -1.28 -0.63 -1.66 5.59 -3.44 -2.99 -6.71 0.79 3.47 0.89 6.64 7.97 8.28 10.61 11.65 12.43 13.02 13.44 13.19 13.62 12.96 12.68 12.66 12.34 10.17 8.89 10.20 11.26 9.75 7.18 4.45 7.89 8.14 11.40 15.37 13.98 13.29 12.62 13.15 13.55 13.25 10.94 11.52 12.56 18.39 16.60
5.46 5.34 9.57 16.29 10.76 10.22 8.62 10.38 11.82 7.92 4.62 3.87 -1.24 -2.80 -3.32 -4.74 -4.91 6.25 13.72 14.52 13.44 13.17 12.60 11.60 12.03 11.72 10.71 10.85 12.25 12.23 11.61 8.41 8.51 9.20 11.21 9.91 10.23 10.01 11.18 8.03 4.50 11.25 13.53 12.99 13.16 13.35 12.49 13.01 13.29 13.43 13.67 14.63 15.44 16.04
6.40 7.24 4.40 5.11 6.18 5.76 3.79 2.92 6.50 10.57 9.76 12.21 10.04 1.78 1.59 6.69 8.53 12.49 13.35 13.22 11.59 11.48 8.12 6.38 6.28 5.97 6.54 6.90 6.42 6.80 4.52 4.95 5.09 -0.39 2.89 4.38 3.20 4.09 6.80 7.88 7.45 17.48 15.12 9.12 10.64 14.12 14.46 14.69 14.76 15.02 15.45 16.07 17.44 15.97
6.05 9.77 8.98 1.14 -1.17 0.64 2.93 5.63 8.62 14.66 16.12 14.49 10.24 12.66 11.09 11.31 11.83 12.59 13.14 11.59 9.29 9.03 7.56 6.10 4.37 0.10 -0.64 0.76 -1.25 -0.88 -3.49 -0.36 2.07 -1.06 -1.96 0.30 2.08 4.49 2.19 7.73 8.13 8.05 6.76 6.04 16.49 19.41 18.65 19.17 19.84 21.00 19.89 15.11 16.13 15.14
3.88 8.04 2.95 -3.67 2.16 4.93 5.29 8.70 9.51 12.73 14.93 13.63 14.71 13.05 11.83 11.00 11.25 11.38 9.96 6.50 6.43 4.25 0.66 -5.24 -6.96 -7.03 -6.16 -4.71 -2.96 0.57 -2.79 -3.18 -0.32 2.52 -3.53 -3.77 0.26 5.48 7.26 6.89 7.23 8.08 7.53 9.59 11.13 12.93 19.17 18.32 19.39 17.00 15.33 13.17 12.00 11.96
9.08 6.50 4.33 5.00 4.57 4.62 5.47 7.02 8.60 11.03 8.47 7.12 6.59 7.72 7.34 7.87 9.43 10.18 6.53 5.66 4.89 -1.87 -3.10 0.25 -0.30 -8.17 -5.02 -1.77 -6.52 -5.31 -0.84 -2.11 -5.11 0.32 3.83 5.96 5.84 7.04 8.26 9.43 11.35 12.24 12.29 12.09 12.90 13.64 14.47 16.20 16.36 14.04 12.04 10.54 10.89 11.64
5.98 -0.17 2.49 3.60 2.13 0.49 2.84 2.36 1.96 3.76 4.56 5.47 5.20 2.12 3.57 4.55 0.02 4.73 9.40 6.05 4.47 3.39 7.85 -1.06 1.45 3.23 0.08 -1.33 -0.52 -0.09 11.26 8.19 5.02 4.42 4.39 7.40 8.99 10.86 12.83 14.10 14.95 15.31 15.05 15.39 17.26 17.50 16.32 13.73 11.58 10.79 10.84 9.66 10.02 9.40
-3.16 -2.59 -5.34 -3.52 -2.04 -2.19 -2.67 -3.31 -2.85 -1.56 0.47 -0.23 0.09 0.18 1.17 5.56 1.82 6.89 10.19 8.41 6.62 5.67 1.59 0.19 1.97 4.14 1.47 -1.10 0.50 2.38 8.65 3.16 4.38 16.36 17.51 19.29 21.54 22.05 21.16 20.84 20.73 18.81 18.25 17.64 16.50 13.83 11.63 10.90 10.53 10.09 9.72 10.79 7.70 2.65
MSLP
1020.76 1020.21 1019.78 1019.32 1018.88 1018.34 1017.78 1017.30 1016.87 1016.49 1016.01 1015.83 1015.99 1016.15 1016.16 1016.21 1016.06 1015.85 1014.60 1015.63 1016.16 1016.06 1015.71 1015.00 1014.43 1014.46 1014.73 1015.01 1015.70 1016.66 1017.46 1018.09 1018.50 1018.70 1018.88 1018.73 1018.89 1018.38 1018.62 1018.77 1019.04 1019.28 1019.94 1020.26 1020.13 1019.34 1017.85 1016.70 1017.21 1017.43 1017.34 1017.66 1018.10 1018.77
1019.79 1019.20 1018.62 1018.11 1017.56 1016.96 1016.42 1015.77 1015.22 1014.78 1014.55 1014.35 1014.34 1014.49 1014.63 1014.86 1015.05 1015.23 1013.53 1013.78 1014.67 1015.08 1014.41 1014.29 1013.77 1013.18 1013.15 1013.05 1013.84 1015.37 1015.28 1015.47 1015.92 1016.87 1017.72 1017.92 1018.22 1018.47 1018.34 1018.78 1018.50 1018.38 1017.77 1017.97 1018.22 1017.45 1016.85 1016.85 1016.96 1017.11 1017.39 1017.73 1018.37 1018.85
1018.88 1018.22 1017.52 1016.93 1016.18 1015.47 1014.71 1014.03 1013.34 1012.96 1012.60 1012.46 1012.43 1012.53 1012.80 1013.08 1013.40 1013.82 1012.77 1012.42 1013.44 1013.54 1013.83 1014.18 1013.27 1013.00 1012.83 1012.85 1012.72 1013.56 1014.81 1014.57 1014.88 1015.03 1016.17 1016.77 1017.24 1017.40 1017.80 1018.02 1017.65 1017.47 1017.21 1017.41 1017.59 1017.18 1017.02 1017.17 1017.38 1017.45 1017.77 1018.12 1018.49 1018.88
1017.98 1017.25 1016.45 1015.66 1014.75 1013.93 1013.04 1012.03 1011.20 1010.53 1010.11 1009.71 1009.86 1009.97 1010.36 1010.89 1011.41 1012.00 1012.06 1010.44 1011.07 1011.75 1012.27 1012.18 1012.52 1012.80 1012.70 1012.61 1012.64 1012.73 1013.11 1013.97 1014.54 1015.18 1015.98 1016.29 1016.74 1016.51 1017.05 1017.05 1016.99 1016.57 1016.76 1016.66 1017.11 1017.20 1017.21 1017.28 1017.45 1017.66 1018.05 1018.34 1018.70 1019.12
1016.84 1016.07 1015.23 1014.27 1013.35 1012.40 1011.10 1009.83 1008.71 1007.72 1006.83 1006.25 1005.93 1006.09 1006.66 1007.78 1008.98 1010.16 1010.09 1008.76 1008.46 1009.50 1009.71 1011.58 1012.13 1012.41 1012.55 1012.38 1012.73 1012.74 1012.99 1013.66 1014.68 1015.60 1016.06 1016.45 1016.42 1016.89 1017.28 1017.41 1016.99 1016.22 1015.77 1015.91 1016.52 1016.63 1016.93 1017.42 1017.57 1017.76 1018.17 1018.48 1018.86 1019.34
1015.59 1014.76 1013.81 1012.80 1011.86 1010.51 1009.04 1007.34 1005.69 1004.23 1002.52 1000.96 999.93 1000.32 1001.35 1003.55 1006.31 1008.76 1008.40 1007.03 1006.17 1008.14 1009.30 1011.07 1011.81 1012.04 1012.44 1012.44 1012.67 1013.06 1013.46 1013.68 1014.37 1014.90 1015.79 1016.13 1016.14 1016.54 1017.33 1017.16 1016.05 1015.83 1015.62 1015.28 1016.27 1016.87 1017.21 1017.52 1017.89 1018.14 1018.47 1018.87 1019.27 1019.72
1014.48 1013.51 1012.41 1011.34 1010.04 1008.45 1006.69 1004.66 1002.74 1000.15 996.82 993.77 992.16 992.35 993.72 997.92 1002.31 1002.79 1002.86 1002.39 1003.34 1006.80 1007.81 1009.84 1011.02 1011.86 1012.24 1012.61 1013.17 1013.57 1013.84 1014.17 1014.49 1015.11 1015.65 1016.09 1016.42 1016.69 1017.23 1017.06 1016.34 1016.24 1016.34 1016.47 1016.92 1017.29 1017.86 1018.14 1018.45 1018.58 1018.83 1019.20 1019.53 1020.04
1013.40 1012.37 1011.22 1010.01 1008.57 1006.99 1004.71 1002.55 999.73 995.42 990.00 987.12 986.03 986.85 989.95 995.41 1000.13 1002.29 1003.10 1001.22 1002.62 1005.27 1006.37 1007.65 1010.14 1011.58 1011.79 1012.28 1013.29 1013.62 1014.06 1014.41 1015.04 1015.20 1015.74 1016.13 1016.83 1016.99 1017.11 1016.78 1016.79 1016.81 1017.09 1017.61 1017.83 1017.86 1018.20 1018.65 1018.99 1019.30 1019.55 1019.82 1020.18 1020.69
1012.52 1011.51 1010.28 1008.93 1007.47 1005.78 1003.62 1001.40 998.19 992.76 987.82 984.64 984.86 987.90 992.74 996.30 997.53 999.78 1001.99 1000.25 1001.89 1003.79 1004.82 1006.05 1008.28 1010.44 1011.20 1011.98 1012.87 1013.80 1014.07 1014.85 1015.55 1015.36 1015.77 1016.16 1016.77 1016.84 1016.55 1016.85 1017.22 1017.53 1017.80 1018.18 1018.35 1018.46 1018.74 1019.14 1019.60 1019.89 1020.11 1020.43 1020.83 1021.27
1011.70 1010.70 1009.46 1008.22 1006.68 1004.99 1003.04 1001.00 997.98 994.13 991.31 990.14 990.42 992.29 995.16 996.40 997.54 1000.20 999.65 1001.01 1002.80 1003.45 1004.22 1005.80 1007.35 1009.57 1010.42 1011.50 1012.89 1013.81 1014.01 1014.78 1015.45 1015.90 1016.01 1016.27 1016.86 1017.43 1017.39 1017.43 1017.63 1017.95 1018.13 1018.32 1018.62 1019.14 1019.39 1019.71 1020.02 1020.40 1020.82 1021.17 1021.50 1021.91
1011.02 1010.04 1008.85 1007.62 1006.14 1004.52 1002.90 1001.19 999.03 997.14 995.09 995.38 995.82 996.84 997.63 997.92 999.14 997.90 999.86 1000.89 1002.62 1003.71 1004.16 1005.81 1007.24 1008.65 1010.61 1011.00 1012.54 1013.38 1014.09 1014.83 1015.62 1016.27 1016.40 1016.68 1017.34 1017.84 1018.08 1018.43 1018.55 1018.53 1018.54 1018.80 1019.02 1019.49 1019.83 1020.09 1020.49 1020.83 1021.24 1021.58 1021.92 1022.17
1010.50 1009.62 1008.40 1007.22 1005.80 1004.38 1002.83 1001.38 1000.19 999.15 999.11 998.65 998.16 998.75 999.35 999.74 999.03 999.89 1000.82 1001.45 1002.07 1004.10 1004.86 1005.73 1007.39 1008.62 1010.30 1011.26 1012.56 1013.84 1014.50 1015.15 1015.84 1016.33 1016.69 1017.05 1017.41 1017.81 1018.43 1018.94 1019.10 1018.97 1018.93 1019.32 1019.55 1020.03 1020.40 1020.66 1020.95 1021.22 1021.54 1021.86 1022.12 1022.32
1010.07 1009.24 1008.18 1007.07 1005.91 1004.57 1003.24 1001.85 1000.37 999.97 999.44 999.48 999.84 1000.14 1000.33 1000.61 1000.61 1000.79 1001.63 1002.94 1003.70 1004.42 1005.08 1005.67 1007.42 1009.12 1010.78 1011.64 1012.91 1013.73 1014.42 1015.55 1016.11 1016.61 1016.84 1017.20 1017.67 1018.03 1018.63 1019.05 1019.25 1019.29 1019.45 1019.70 1020.04 1020.38 1020.81 1021.18 1021.37 1021.49 1021.67 1021.82 1021.97 1022.08
1009.77 1008.94 1008.02 1007.02 1006.13 1004.88 1003.72 1002.57 1001.52 1000.88 1000.70 1001.71 1002.22 1002.64 1002.45 1002.78 1002.79 1002.75 1002.76 1003.25 1004.13 1004.50 1005.35 1006.19 1007.50 1009.26 1010.96 1012.14 1013.30 1014.12 1015.35 1015.86 1016.74 1017.05 1017.11 1017.47 1017.73 1018.17 1018.77 1019.10 1019.24 1019.67 1019.93 1020.32 1020.61 1020.88 1021.18 1021.43 1021.56 1021.66 1021.77 1021.76 1021.80 1021.68
1009.47 1008.63 1007.86 1006.94 1006.09 1005.15 1004.00 1003.03 1002.27 1002.26 1002.76 1003.40 1003.54 1004.34 1004.67 1004.57 1004.32 1003.92 1003.91 1003.99 1004.88 1005.43 1005.76 1007.01 1008.95 1010.28 1011.63 1012.71 1013.33 1014.59 1015.72 1015.95 1015.98 1016.14 1016.57 1017.05 1017.63 1018.17 1018.82 1019.21 1019.49 1019.83 1020.32 1020.73 1020.94 1021.14 1021.30 1021.49 1021.67 1021.68 1021.58 1021.53 1021.49 1021.31
1009.32 1008.49 1008.05 1007.12 1006.10 1005.13 1004.17 1003.23 1002.80 1002.96 1004.26 1005.09 1005.97 1006.16 1006.01 1005.41 1005.23 1005.20 1005.45 1005.72 1006.34 1006.75 1007.29 1007.98 1009.75 1011.40 1012.59 1013.06 1013.78 1014.48 1014.95 1015.16 1015.41 1015.77 1016.34 1016.94 1017.56 1018.18 1018.83 1019.30 1019.56 1019.93 1020.40 1020.77 1020.98 1021.15 1021.32 1021.45 1021.62 1021.68 1021.52 1021.28 1021.12 1020.98
1009.42 1009.39 1008.36 1007.32 1006.16 1005.30 1004.79 1004.08 1003.97 1005.39 1006.60 1007.40 1008.19 1007.85 1007.38 1007.15 1007.16 1007.17 1007.22 1007.65 1007.74 1007.83 1008.90 1009.60 1010.87 1012.53 1013.21 1013.79 1014.15 1014.30 1014.49 1014.68 1015.03 1015.77 1016.37 1016.87 1017.56 1018.25 1018.91 1019.34 1019.75 1020.15 1020.56 1020.85 1021.13 1021.34 1021.47 1021.50 1021.64 1021.61 1021.44 1021.08 1020.89 1020.70
1010.18 1009.60 1008.59 1007.70 1006.66 1006.04 1006.15 1006.26 1006.94 1008.09 1009.15 1009.49 1009.33 1009.16 1008.72 1008.60 1008.58 1008.81 1008.82 1008.43 1008.19 1008.90 1009.62 1010.79 1011.71 1012.76 1013.14 1013.65 1014.34 1014.61 1014.94 1015.25 1015.54 1016.08 1016.89 1017.45 1017.93 1018.52 1019.08 1019.66 1020.04 1020.36 1020.71 1021.05 1021.29 1021.51 1021.63 1021.59 1021.55 1021.47 1021.24 1020.89 1020.63 1020.22
1010.32 1009.80 1009.00 1008.22 1007.74 1008.05 1008.75 1008.97 1009.22 1010.65 1011.17 1010.98 1010.77 1010.42 1010.12 1010.17 1010.15 1010.03 1009.66 1009.47 1009.45 1009.78 1010.44 1011.40 1012.41 1013.36 1013.65 1013.84 1014.08 1014.83 1015.26 1015.50 1016.28 1016.97 1017.42 1017.79 1018.18 1018.82 1019.45 1019.94 1020.35 1020.65 1020.86 1021.15 1021.43 1021.61 1021.62 1021.52 1021.44 1021.20 1020.91 1020.60 1020.32 1020.01
1010.10 1009.81 1009.38 1008.91 1008.32 1009.83 1011.27 1011.63 1011.19 1011.96 1012.54 1012.73 1012.34 1011.98 1011.79 1011.82 1011.48 1011.18 1010.88 1010.70 1010.58 1010.92 1012.18 1013.38 1014.29 1014.44 1014.27 1014.45 1014.49 1014.86 1015.35 1015.82 1016.42 1017.39 1018.11 1018.50 1018.86 1019.34 1019.83 1020.19 1020.61 1021.04 1021.33 1021.51 1021.62 1021.49 1021.52 1021.28 1021.10 1020.92 1020.68 1020.46 1020.48 1020.31
1010.30 1010.13 1009.81 1009.78 1010.79 1011.74 1013.31 1014.09 1013.71 1013.90 1013.91 1014.06 1013.97 1013.73 1013.90 1013.58 1013.47 1013.42 1013.38 1012.91 1012.82 1014.40 1015.28 1015.55 1015.51 1015.44 1015.26 1015.27 1015.40 1015.75 1016.36 1016.61 1017.09 1017.42 1018.01 1018.85 1019.37 1019.68 1020.22 1020.83 1021.24 1021.72 1021.74 1021.71 1021.55 1021.33 1021.22 1021.20 1021.03 1020.84 1020.88 1020.84 1020.66 1020.18
1011.26 1010.90 1011.29 1011.59 1013.43 1014.06 1014.92 1015.44 1015.43 1015.14 1015.33 1015.80 1015.61 1015.50 1016.01 1016.22 1016.20 1016.27 1016.00 1015.19 1016.29 1017.08 1016.87 1016.77 1016.51 1016.29 1016.26 1016.50 1016.78 1016.94 1017.19 1017.45 1017.78 1018.10 1018.62 1019.10 1019.91 1020.59 1020.92 1021.21 1021.47 1021.64 1021.56 1021.55 1021.44 1021.39 1021.36 1021.18 1021.02 1020.93 1020.96 1020.76 1020.42 1020.07
1011.57 1011.93 1013.14 1014.25 1015.25 1016.41 1017.59 1016.97 1016.88 1016.94 1016.97 1017.68 1017.43 1017.92 1018.54 1018.53 1018.27 1017.65 1017.88 1018.29 1018.39 1018.41 1018.30 1017.96 1017.64 1017.57 1017.71 1018.07 1018.14 1018.32 1018.46 1018.65 1019.21 1019.57 1019.90 1020.28 1020.67 1020.94 1021.14 1021.33 1021.34 1021.45 1021.35 1021.36 1021.31 1021.44 1021.53 1021.34 1021.34 1021.18 1020.86 1020.69 1020.37 1019.86
1012.69 1014.54 1015.88 1017.05 1017.75 1019.05 1018.87 1019.17 1018.72 1018.73 1018.70 1019.24 1019.93 1020.50 1020.61 1020.63 1019.85 1019.45 1020.08 1020.19 1020.19 1019.66 1019.14 1018.89 1018.66 1018.68 1018.85 1019.13 1019.58 1020.06 1020.22 1020.22 1020.50 1020.80 1020.97 1021.15 1021.43 1021.67 1021.52 1021.37 1021.18 1021.13 1021.30 1021.45 1021.55 1021.72 1021.76 1021.59 1021.33 1021.12 1020.85 1020.55 1020.10 1019.65
1014.80 1017.10 1017.72 1018.85 1019.08 1019.61 1020.31 1020.51 1020.57 1020.13 1021.08 1021.04 1021.41 1021.89 1022.06 1021.89 1021.63 1021.64 1021.69 1021.58 1021.32 1021.10 1020.70 1020.14 1019.68 1019.61 1020.09 1020.63 1020.87 1021.20 1021.49 1021.57 1021.74 1022.00 1022.04 1021.97 1022.05 1021.68 1021.38 1021.34 1021.25 1021.34 1021.49 1021.83 1022.08 1022.03 1021.83 1021.51 1021.24 1020.95 1020.56 1020.19 1019.67 1019.01
1016.95 1018.49 1019.05 1019.54 1019.95 1019.93 1020.86 1021.27 1021.03 1021.08 1021.19 1021.59 1022.22 1022.59 1022.74 1022.53 1022.76 1022.99 1022.52 1022.35 1022.42 1022.41 1022.26 1022.02 1021.74 1021.61 1021.77 1021.96 1022.13 1022.24 1022.47 1022.50 1022.37 1022.23 1022.23 1022.07 1022.10 1022.22 1022.07 1022.19 1022.29 1022.08 1022.11 1022.38 1022.36 1022.02 1021.63 1021.25 1020.86 1020.49 1020.09 1019.52 1019.00 1018.61
1018.87 1019.65 1019.68 1019.60 1019.74 1020.12 1020.70 1020.62 1020.60 1020.71 1021.04 1021.49 1021.90 1022.37 1022.54 1023.30 1023.36 1023.11 1022.81 1022.92 1023.07 1023.40 1023.50 1023.43 1023.31 1023.27 1023.39 1023.25 1023.07 1023.02 1022.75 1022.68 1022.78 1022.74 1022.44 1022.28 1022.20 1022.22 1022.41 1022.78 1022.86 1022.76 1022.46 1022.19 1021.96 1021.73 1021.27 1020.71 1020.24 1019.79 1019.34 1018.88 1018.55 1018.18
1019.95 1020.19 1020.52 1020.52 1020.47 1020.67 1021.14 1021.20 1020.87 1020.62 1020.57 1020.68 1021.23 1022.10 1022.60 1022.83 1023.36 1023.36 1023.51 1023.82 1024.04 1024.25 1024.34 1024.36 1024.20 1024.11 1023.95 1023.94 1023.99 1023.79 1023.43 1023.31 1022.80 1022.58 1022.41 1022.49 1022.55 1022.63 1022.73 1022.91 1022.74 1022.28 1021.95 1021.76 1021.39 1020.85 1020.45 1020.01 1019.48 1019.00 1018.62 1018.24 1017.89 1017.69
1020.86 1020.88 1020.89 1021.50 1021.45 1021.55 1021.51 1021.53 1021.22 1020.72 1020.65 1020.65 1021.28 1021.96 1022.65 1023.24 1023.86 1023.95 1024.20 1024.47 1024.63 1024.72 1025.01 1025.25 1025.37 1025.30 1025.17 1024.88 1024.76 1024.49 1024.49 1024.19 1023.91 1024.07 1024.00 1023.92 1023.77 1023.41 1022.73 1022.60 1022.23 1021.81 1021.45 1021.08 1020.45 1020.00 1019.47 1018.93 1018.39 1017.94 1017.77 1017.81 1017.65 1017.45
1021.73 1021.43 1021.68 1022.10 1022.54 1022.61 1022.40 1022.09 1021.79 1021.44 1021.16 1021.35 1021.62 1022.45 1023.19 1024.03 1024.54 1024.68 1024.82 1025.10 1025.44 1025.80 1026.17 1026.29 1026.22 1025.99 1026.35 1026.11 1025.72 1025.14 1024.77 1024.64 1024.62 1024.63 1024.51 1024.32 1023.99 1023.19 1022.75 1022.29 1021.77 1021.20 1020.78 1020.47 1019.99 1019.39 1018.79 1018.41 1017.99 1017.80 1017.74 1017.70 1017.69 1017.60
1022.11 1022.10 1022.39 1022.70 1023.01 1023.14 1023.03 1022.80 1022.43 1022.20 1022.26 1022.47 1022.76 1023.13 1024.03 1024.61 1024.98 1025.31 1025.51 1025.81 1026.01 1026.20 1026.34 1026.46 1026.17 1026.05 1026.21 1026.17 1025.91 1025.52 1025.16 1024.76 1024.48 1024.25 1024.05 1023.57 1023.09 1022.56 1021.94 1021.34 1020.81 1020.36 1020.01 1019.72 1019.33 1018.93 1018.54 1018.21 1017.99 1017.89 1017.95 1018.04 1018.05 1018.00
1022.75 1023.17 1023.27 1023.61 1023.57 1023.54 1023.28 1023.40 1023.28 1023.20 1023.29 1023.35 1023.92 1024.15 1024.57 1024.88 1025.45 1025.78 1025.99 1026.07 1026.22 1026.49 1026.32 1026.55 1026.60 1026.16 1025.88 1025.62 1025.43 1025.30 1024.92 1024.53 1024.12 1023.54 1022.86 1022.33 1021.78 1021.17 1020.60 1020.11 1019.64 1019.32 1019.11 1018.82 1018.43 1018.29 1018.21 1018.14 1018.15 1018.25 1018.36 1018.42 1018.43 1018.47
1023.63 1023.66 1023.84 1024.05 1023.90 1024.00 1024.17 1024.10 1024.25 1024.12 1024.02 1024.50 1024.64 1024.74 1024.90 1024.97 1025.64 1026.01 1026.15 1026.21 1026.36 1026.43 1026.57 1026.64 1026.17 1025.72 1025.49 1025.26 1024.95 1024.67 1024.29 1024.12 1023.72 1022.37 1021.86 1021.11 1020.27 1019.95 1019.59 1019.15 1018.82 1018.59 1018.37 1018.18 1018.09 1018.13 1018.20 1018.32 1018.49 1018.62 1018.71 1018.82 1019.00 1019.06
Wind_Speed
29 30 30 31 32 32 33 34 32 33 31 28 27 28 27 25 25 19 9 12 11 4 10 6 6 6 4 4 6 5 5 1 2 4 5 5 4 6 2 4 7 8 8 5 2 2 8 6 4 6 4 2 5 5
30 31 32 33 33 34 35 35 34 32 31 31 31 30 30 30 28 21 11 10 10 5 4 3 5 3 5 6 7 4 1 6 6 4 2 4 3 2 4 4 2 3 6 5 8 6 1 4 1 2 3 4 4 5
31 33 33 34 35 36 36 36 34 35 34 34 34 34 33 33 31 26 15 8 7 9 5 4 7 6 3 5 2 7 2 4 4 2 4 3 4 4 6 6 4 3 3 2 2 3 3 4 1 2 2 2 3 3
32 33 33 35 35 36 38 38 37 37 40 37 39 39 38 37 37 31 16 9 13 4 8 6 2 5 1 4 4 3 5 5 5 3 2 3 3 3 3 0 3 4 7 6 2 0 2 0 3 4 4 4 4 4
31 33 34 34 36 40 39 40 40 42 40 46 46 47 44 44 40 25 14 13 18 12 7 4 2 4 2 4 6 5 7 6 3 3 2 3 2 3 2 2 3 5 6 5 5 4 4 3 2 1 2 4 5 5
31 33 34 35 37 38 41 42 44 44 50 52 53 53 53 50 44 16 11 18 19 12 4 6 1 3 2 6 7 7 3 3 3 4 3 2 1 3 3 3 4 2 3 2 4 4 4 2 2 1 3 1 3 5
32 32 33 35 37 39 43 43 44 50 55 56 51 47 50 53 28 20 10 7 28 13 4 5 5 4 5 4 2 3 3 3 3 3 2 3 2 4 2 4 2 3 4 7 4 5 3 2 2 1 2 3 2 4
31 33 33 35 36 40 39 42 48 55 49 42 36 33 43 47 32 20 8 28 24 10 4 7 5 5 4 4 4 1 3 3 1 3 3 3 2 2 4 4 3 4 6 7 6 4 4 5 5 5 4 2 3 3
30 32 32 34 35 39 36 41 48 52 25 6 22 36 25 16 9 13 20 33 4 5 6 4 11 6 4 3 3 3 2 3 1 3 3 5 4 5 4 5 6 4 4 4 4 5 5 5 5 4 4 4 3 2
28 30 31 32 34 37 34 39 45 31 22 31 19 8 6 3 32 25 6 5 3 2 2 4 4 5 5 3 3 4 2 3 3 2 3 3 2 3 4 4 5 5 5 4 5 4 4 6 5 4 5 4 4 2
27 29 30 31 32 33 32 33 39 35 19 7 5 4 2 14 2 3 5 6 5 3 3 4 4 10 1 5 5 1 4 2 4 3 4 3 3 4 5 5 3 4 5 6 7 6 6 7 6 5 4 4 3 4
25 26 28 29 29 30 32 31 30 10 5 7 5 4 4 1 4 7 3 4 5 4 2 6 6 6 4 4 5 3 3 2 4 4 3 4 3 6 8 6 5 6 8 8 7 7 6 6 5 3 2 1 1 4
23 24 26 28 27 29 31 32 30 21 6 3 5 6 4 4 6 4 5 4 4 3 3 6 8 5 4 4 5 3 4 3 5 2 4 3 5 5 7 5 6 6 7 7 6 5 4 3 1 2 1 2 4 5
19 23 24 24 27 29 31 31 25 9 6 5 5 7 5 5 5 4 3 4 3 6 11 7 6 5 3 4 3 5 3 4 2 4 5 4 5 7 6 5 7 6 6 6 5 3 2 3 4 4 4 4 5 6
19 23 21 18 27 28 29 29 18 3 3 4 5 7 6 3 3 3 2 8 6 5 6 7 6 5 4 5 3 5 4 3 4 4 4 5 7 7 6 5 6 5 4 2 1 1 3 3 4 5 5 4 5 6
18 16 6 27 28 29 24 16 5 3 4 5 8 5 4 4 8 8 9 10 5 4 3 5 6 5 4 4 4 3 7 5 4 3 4 7 7 7 6 5 5 4 3 2 2 2 4 4 5 6 6 6 6 6
10 3 18 25 28 22 17 5 4 7 5 6 4 3 3 3 5 5 5 4 2 2 4 3 6 3 4 3 3 2 3 4 6 5 5 6 7 7 6 5 4 4 2 0 1 2 3 3 3 4 6 5 6 6
2 7 18 24 19 8 4 7 5 6 7 4 4 6 4 5 3 5 3 4 3 3 3 4 5 3 3 5 2 2 2 2 4 7 5 5 6 6 5 6 4 3 2 1 1 1 2 4 5 4 6 6 5 5
2 6 18 20 9 3 5 7 5 5 4 3 3 3 3 3 5 4 3 5 4 3 5 3 6 3 2 1 6 3 2 3 5 3 4 5 6 6 6 5 4 3 2 1 0 1 2 4 4 3 4 4 5 5
9 10 18 12 10 5 7 5 3 5 4 4 3 5 3 3 4 4 7 7 4 4 8 6 3 2 3 2 2 4 4 4 5 4 3 3 3 5 4 4 3 2 2 1 1 1 1 1 1 3 3 5 6 6
9 8 12 7 5 6 5 4 4 3 2 4 4 4 3 4 5 6 5 7 6 4 4 3 3 3 4 4 4 5 5 3 3 3 4 3 2 4 3 2 2 3 2 1 0 3 4 2 3 4 3 5 6 6
3 9 4 6 7 6 5 5 2 2 4 2 4 4 4 4 4 5 6 6 4 3 4 4 3 4 4 6 5 5 4 6 5 5 7 6 3 2 1 1 2 1 0 0 0 1 3 3 4 3 3 5 7 6
5 5 5 6 8 8 3 4 5 6 6 4 4 5 4 4 3 5 4 2 3 4 5 3 5 5 5 4 6 9 8 6 5 4 4 3 3 2 2 1 1 2 1 2 2 2 3 8 7 6 4 6 6 6
8 6 6 5 4 1 4 6 3 4 5 5 4 4 3 3 5 4 4 2 3 6 6 8 2 2 4 5 6 5 6 4 4 4 3 3 2 1 1 1 1 2 1 1 2 2 4 4 9 5 6 6 6 6
8 8 6 5 3 7 7 6 6 5 3 3 3 4 4 3 4 4 2 2 4 5 7 6 6 6 5 3 3 5 6 4 3 2 2 1 2 1 2 3 3 3 3 4 4 5 5 4 5 6 6 6 7 10
6 4 4 0 3 4 1 3 2 0 2 3 1 2 2 3 5 1 2 2 2 3 5 6 4 3 5 4 3 3 4 2 2 1 1 2 2 2 1 3 3 4 2 2 4 6 7 7 7 7 8 10 14 11
4 3 3 1 2 3 3 3 2 2 2 1 1 3 4 5 2 1 1 3 2 3 4 4 3 3 1 1 1 1 3 2 2 3 5 2 1 1 2 2 2 4 5 6 5 6 8 8 8 8 8 8 8 7
2 1 2 3 3 2 4 2 2 1 0 1 3 3 3 1 2 2 2 2 1 1 1 2 3 3 3 3 3 5 4 4 5 2 1 2 2 1 2 1 3 13 6 4 6 6 7 8 8 9 10 10 7 4
3 3 2 4 3 4 2 2 1 2 3 1 2 2 3 3 2 2 2 2 2 3 4 4 4 4 3 1 1 2 1 3 5 6 4 3 4 4 2 5 6 5 4 4 14 13 10 9 8 7 5 2 4 4
3 2 3 2 3 1 1 2 1 2 3 2 2 3 3 3 2 2 2 2 3 2 0 1 2 3 2 3 4 6 2 1 2 4 1 3 4 5 7 7 7 7 5 5 7 8 14 9 8 4 4 3 3 3
2 2 3 2 2 1 2 2 2 2 3 3 3 4 3 3 1 2 3 2 2 2 2 4 4 2 3 4 2 3 4 2 3 5 5 6 6 7 8 8 8 7 6 7 7 7 7 7 5 4 4 4 4 4
3 3 2 2 1 3 3 3 2 3 3 3 3 2 2 3 2 2 2 2 2 2 5 3 5 6 3 3 3 4 10 6 5 5 8 7 7 9 9 8 8 7 7 7 6 5 5 4 2 2 2 3 4 5
2 2 2 2 4 4 3 4 5 2 3 2 2 0 1 2 3 1 1 1 1 1 2 3 5 5 5 5 5 5 6 4 10 16 17 17 17 14 8 6 4 4 5 5 4 2 2 2 2 3 3 4 5 5
Wind_Direction
305 303 304 304 303 298 298 296 289 286 278 271 268 271 267 268 258 247 205 185 200 192 259 215 201 158 142 163 158 160 100 237 95 176 168 204 189 219 161 168 178 170 154 197 125 182 269 163 70 163 213 97 152 160
305 303 301 302 301 299 296 294 287 280 273 270 268 262 259 257 260 254 229 180 191 202 223 232 239 227 210 182 136 191 201 160 166 126 195 121 176 152 160 233 356 223 194 181 186 217 295 190 81 86 127 139 177 166
303 301 300 300 299 298 299 292 287 281 272 267 266 261 256 251 252 240 249 160 176 220 235 249 221 222 175 203 189 137 236 184 181 172 153 164 191 139 163 225 187 241 164 200 124 202 152 159 57 96 165 135 166 182
299 299 298 299 298 299 297 293 287 282 276 268 269 258 252 248 245 236 242 193 187 166 208 228 110 189 197 179 175 148 140 88 105 104 132 149 178 188 195 243 180 184 150 167 224 245 84 159 201 161 150 132 139 131
299 300 301 302 304 299 297 293 290 286 276 273 262 248 241 239 232 233 231 220 185 199 182 147 94 193 233 170 176 149 137 126 135 115 115 194 109 124 77 76 241 192 177 169 209 193 135 143 161 136 186 219 196 160
303 303 305 308 306 304 302 299 293 287 280 272 264 254 235 226 219 210 235 222 180 201 142 156 90 134 127 138 132 128 109 96 108 133 144 182 29 115 181 224 266 198 42 102 153 153 134 155 284 338 232 192 151 185
304 307 308 310 308 309 306 304 302 294 287 277 262 250 219 202 195 194 198 178 169 159 150 130 154 170 131 110 83 92 56 90 103 114 151 134 167 146 173 202 307 130 128 92 110 112 103 75 95 46 154 104 95 96
308 311 315 311 314 313 313 315 314 308 299 283 258 220 184 178 184 195 223 163 153 166 178 149 114 138 191 132 115 102 104 90 59 126 118 138 107 151 225 193 106 96 101 88 76 69 114 120 85 77 78 87 90 77
308 314 315 314 318 317 326 330 327 324 317 244 139 135 137 167 156 176 199 154 100 144 170 122 149 156 163 99 108 86 122 126 88 137 165 151 156 212 175 152 144 84 110 128 99 106 116 103 96 76 83 77 74 30
310 317 317 320 322 323 333 341 340 346 79 94 97 77 65 109 117 140 125 104 62 39 125 106 94 123 130 131 98 112 108 126 149 142 118 197 135 63 28 69 97 122 124 139 117 89 84 76 66 61 65 77 80 48
313 318 320 323 324 328 336 345 348 345 20 20 24 48 1 101 207 54 94 147 134 136 104 104 107 127 317 119 115 85 131 127 148 170 162 156 162 158 130 101 103 116 104 87 95 96 88 114 117 110 95 65 23 344
317 321 324 328 330 334 341 345 355 358 358 3 59 53 54 230 51 92 103 94 78 134 114 105 116 111 92 96 103 122 110 143 161 128 118 160 165 133 127 143 139 126 111 103 105 109 106 104 108 109 108 16 321 291
318 321 329 334 338 339 341 345 349 358 353 19 32 28 5 346 63 74 117 90 107 129 134 143 112 100 113 85 82 108 111 117 112 94 157 175 143 131 137 144 125 112 106 106 101 96 106 115 117 181 256 262 283 283
318 324 325 331 337 337 339 339 347 10 34 36 22 22 28 8 38 24 63 109 128 116 111 102 85 86 93 81 122 97 76 115 104 144 202 174 160 145 148 140 124 135 115 115 127 145 186 230 250 256 253 272 291 303
320 327 321 330 337 335 335 335 342 40 39 46 27 35 22 7 16 19 42 82 72 95 96 93 70 74 75 107 73 109 135 144 196 174 156 154 148 140 144 146 145 148 156 170 153 279 289 294 278 285 291 295 291 287
324 326 322 335 332 335 336 332 354 51 49 44 36 20 334 16 48 54 67 67 35 54 64 49 86 84 80 101 110 135 134 181 175 167 135 133 133 142 144 146 144 136 151 217 269 289 304 311 303 295 304 304 300 293
353 324 322 334 331 335 357 2 20 43 47 39 13 350 348 35 41 37 34 36 340 65 73 95 72 70 113 89 107 213 157 151 144 123 123 131 139 142 136 127 125 131 139 225 280 298 291 307 306 311 312 307 297 286
348 299 335 343 345 347 8 18 56 55 39 9 27 353 12 21 33 35 8 348 47 63 53 86 122 102 119 119 155 159 97 78 84 125 127 122 116 119 129 132 131 136 149 147 223 277 293 325 324 298 289 288 289 287
306 346 349 351 1 55 35 13 32 73 28 357 343 344 16 23 33 41 18 39 59 78 106 65 70 77 107 106 114 109 118 114 124 120 104 104 121 128 128 126 130 125 103 108 148 291 275 272 264 284 296 316 316 324
350 353 355 13 24 56 40 4 29 57 29 357 360 1 27 9 343 15 30 12 19 44 36 43 37 18 47 57 61 106 104 112 113 100 106 115 119 122 124 125 110 119 131 152 264 324 223 290 311 328 330 331 326 313
2 339 5 24 31 48 68 5 34 34 357 46 337 14 16 354 20 16 10 337 47 37 53 28 38 43 61 67 61 78 85 94 113 125 141 124 112 106 96 91 135 158 154 204 313 348 23 356 322 327 303 304 306 296
304 8 39 15 60 17 64 359 44 336 52 351 12 11 28 22 5 14 315 35 49 28 13 358 8 17 33 39 45 49 77 83 72 75 67 94 107 99 118 154 122 166 101 262 98 9 337 329 314 306 306 297 314 300
17 31 40 26 62 38 346 16 58 2 45 351 15 37 16 7 337 318 64 35 38 2 348 338 354 25 70 52 60 50 42 76 74 67 65 75 80 78 82 93 133 132 34 346 60 12 326 320 321 310 300 308 293 295
34 47 44 37 60 14 8 15 25 26 29 28 32 29 12 331 324 49 70 36 348 338 356 359 345 80 58 48 54 42 23 36 67 65 41 92 103 109 343 329 44 75 61 13 36 336 305 294 312 306 290 288 291 289
62 339 73 2 349 52 33 13 348 42 53 336 45 358 334 349 57 49 48 330 355 2 354 355 35 51 81 78 75 66 40 35 44 32 321 159 152 4 24 27 24 19 51 42 353 318 297 283 280 278 285 288 288 290
64 325 64 286 317 87 155 55 19 356 93 34 358 269 19 74 60 17 337 303 355 353 354 8 7 45 53 33 56 25 354 336 239 120 318 68 67 109 38 31 14 340 26 16 304 294 295 290 284 283 285 289 305 314
51 332 332 234 122 105 58 43 61 92 65 79 243 34 52 60 13 275 98 25 46 25 7 6 7 42 49 341 339 341 339 23 49 260 292 305 307 186 139 154 220 262 289 272 273 283 282 285 286 285 286 288 282 281
151 84 109 277 52 15 118 59 77 76 251 109 98 48 97 125 85 52 35 38 37 108 80 28 28 21 9 12 1 343 340 331 306 340 22 20 22 337 120 231 248 307 311 279 267 267 266 270 276 281 282 284 290 286
36 332 80 20 13 33 83 120 148 39 4 82 96 74 84 59 30 24 43 38 34 61 43 19 356 344 323 335 303 316 352 10 52 51 30 317 336 310 297 314 301 291 275 273 301 303 291 284 280 284 299 269 300 296
329 351 83 49 79 27 303 356 33 344 17 48 75 102 82 61 24 4 50 55 65 83 119 241 281 32 22 19 338 338 349 46 97 111 205 265 253 281 297 290 287 283 273 270 281 292 305 310 300 307 316 321 322 318
313 26 63 55 97 318 323 313 316 38 37 48 10 79 97 132 66 42 51 41 80 72 43 8 355 9 25 354 348 347 329 308 238 257 258 258 259 267 272 273 273 274 274 271 274 278 281 298 301 315 336 345 349 19
11 54 98 50 318 310 12 48 28 55 7 52 48 73 63 69 64 343 1 20 47 34 23 35 354 331 287 258 251 236 266 281 281 274 280 273 266 260 263 264 264 259 259 262 270 282 298 312 340 8 9 23 32 31
33 39 39 57 19 9 339 67 26 30 31 57 21 150 150 114 130 185 171 14 243 189 241 281 288 300 287 271 264 278 298 271 293 311 316 314 310 315 313 292 290 272 281 289 294 322 13 57 55 58 61 57 48 33